Flight Track Log - Related Links

Times and Time Zones

All times are in EDT time to prevent confusion due to time zone crossing. See the EJM918 flight status page for this flight to view local times or setup timezone preferences in your user account.

Time Position Orientation Groundspeed Altitude Reporting Facility
EDT Latitude Longitude Course Direction KTS MPH feet Rate Location/Type
Mon 10:57:51 AM 38.9610 -77.5170 311° West 199 229 2,600  Level FlightAware ADS-B
Mon 10:58:16 AM 38.9760 -77.5390 311° West 202 232 3,800 2,400 Climbing FlightAware ADS-B
Mon 10:58:46 AM 38.9960 -77.5660 314° West 212 244 4,800 1,500 Climbing FlightAware ADS-B
Mon 10:58:56 AM 39.0020 -77.5760 308° West 211 243 4,800  Level FlightAware ADS-B
Mon 10:59:21 AM 39.0180 -77.5990 312° West 211 243 4,800  Level FlightAware ADS-B
Mon 10:59:51 AM 39.0380 -77.6280 312° West 210 242 4,800  Level FlightAware ADS-B
Mon 11:00:06 AM 39.0460 -77.6390 313° West 219 252 4,800 600 Level FlightAware ADS-B
Mon 11:00:21 AM 39.0570 -77.6550 312° West 235 270 5,100 2,400 Climbing FlightAware ADS-B
Mon 11:00:51 AM 39.0820 -77.6910 312° West 273 314 6,600 3,382 Climbing FlightAware ADS-B
Mon 11:01:16 AM 39.1040 -77.7210 313° West 273 314 8,200 2,400 Climbing FlightAware ADS-B
Mon 11:01:46 AM 39.1330 -77.7530 319° Northwest 284 327 8,800 900 Climbing FlightAware ADS-B
Mon 11:01:56 AM 39.1470 -77.7580 345° North 289 333 8,800  Level FlightAware ADS-B
Mon 11:02:27 AM 39.1840 -77.7440 16° North 299 344 8,800  Level FlightAware ADS-B
Mon 11:02:42 AM 39.1970 -77.7220 53° Northeast 303 349 8,800  Level FlightAware ADS-B
Mon 11:03:12 AM 39.2080 -77.6750 73° East 304 350 8,800  Level FlightAware ADS-B
Mon 11:03:42 AM 39.2200 -77.6170 75° East 303 349 8,800  Level FlightAware ADS-B
Mon 11:04:07 AM 39.2280 -77.5760 76° East 303 349 8,800  Level FlightAware ADS-B
Mon 11:04:17 AM 39.2310 -77.5620 75° East 303 349 8,800  Level FlightAware ADS-B
Mon 11:04:48 AM 39.2440 -77.5010 75° East 303 349 8,800  Level FlightAware ADS-B
Mon 11:05:18 AM 39.2540 -77.4500 76° East 304 350 8,800  Level FlightAware ADS-B
Mon 11:05:43 AM 39.2630 -77.4100 74° East 304 350 8,800 436 Level FlightAware ADS-B
Mon 11:06:13 AM 39.2750 -77.3510 75° East 302 348 9,200 1,000 Climbing FlightAware ADS-B
Mon 11:06:43 AM 39.2850 -77.3010 75° East 305 351 9,800 764 Climbing FlightAware ADS-B
Mon 11:07:08 AM 39.2950 -77.2520 75° East 338 389 9,900 1,457 Climbing FlightAware ADS-B
Mon 11:07:53 AM 39.3150 -77.1560 75° East 394 453 11,500 2,700 Climbing FlightAware ADS-B
Mon 11:08:28 AM 39.3310 -77.0750 76° East 410 472 13,500 2,475 Climbing FlightAware ADS-B
Mon 11:09:13 AM 39.3300 -76.9660 91° East 420 483 14,800 1,600 Climbing FlightAware ADS-B
Mon 11:09:58 AM 39.3170 -76.8570 99° East 425 489 15,900 3,035 Climbing FlightAware ADS-B
Mon 11:10:38 AM 39.3040 -76.7530 99° East 409 471 19,100 4,091 Climbing FlightAware ADS-B
Mon 11:11:26 AM 39.2885 -76.6332 99° East 424 488 21,900 2,962 Climbing FlightAware ADS-B
Mon 11:11:57 AM 39.2789 -76.5558 99° East 434 499 23,000 1,082 Climbing FlightAware ADS-B
Mon 11:12:27 AM 39.2692 -76.4785 99° East 434 499 23,000  Level FlightAware ADS-B
Mon 11:12:57 AM 39.2593 -76.4020 99° East 432 497 23,000  Level FlightAware ADS-B
Mon 11:13:27 AM 39.2494 -76.3257 99° East 433 498 23,000  Level FlightAware ADS-B
Mon 11:13:58 AM 39.2392 -76.2468 99° East 433 498 23,000  Level FlightAware ADS-B
Mon 11:14:29 AM 39.2290 -76.1686 100° East 434 499 23,000  Level FlightAware ADS-B
Mon 11:15:00 AM 39.2187 -76.0906 100° East 432 497 23,000  Level FlightAware ADS-B
Mon 11:15:32 AM 39.2079 -76.0085 100° East 434 499 23,000  Level FlightAware ADS-B
Mon 11:15:47 AM 39.2039 -75.9710 98° East 438 504 23,000  Level FlightAware ADS-B
Mon 11:16:02 AM 39.2055 -75.9308 87° East 443 510 23,000  Level FlightAware ADS-B
Mon 11:16:21 AM 39.2146 -75.8830 76° East 445 512 23,000  Level FlightAware ADS-B
Mon 11:16:37 AM 39.2284 -75.8447 65° Northeast 443 510 23,000  Level FlightAware ADS-B
Mon 11:16:49 AM 39.2426 -75.8178 56° Northeast 442 509 23,000  Level FlightAware ADS-B
Mon 11:17:00 AM 39.2572 -75.7964 49° Northeast 441 507 23,000  Level FlightAware ADS-B
Mon 11:17:31 AM 39.3022 -75.7380 45° Northeast 440 506 23,000  Level FlightAware ADS-B
Mon 11:18:01 AM 39.3453 -75.6822 45° Northeast 441 507 23,000  Level FlightAware ADS-B
Mon 11:18:33 AM 39.3912 -75.6223 45° Northeast 441 507 23,000  Level FlightAware ADS-B
Mon 11:19:05 AM 39.4375 -75.5624 45° Northeast 442 509 23,000  Level FlightAware ADS-B
Mon 11:19:36 AM 39.4819 -75.5043 45° Northeast 443 510 23,000  Level FlightAware ADS-B
Mon 11:20:07 AM 39.5268 -75.4457 45° Northeast 442 509 23,000  Level FlightAware ADS-B
Mon 11:20:38 AM 39.5714 -75.3875 45° Northeast 441 507 23,000  Level FlightAware ADS-B
Mon 11:21:15 AM 39.6220 -75.3167 47° Northeast 449 517 23,000  Level FlightAware ADS-B
Mon 11:21:22 AM 39.6306 -75.2990 58° Northeast 461 531 23,000  Level FlightAware ADS-B
Mon 11:21:29 AM 39.6374 -75.2821 62° Northeast 470 541 23,000  Level FlightAware ADS-B
Mon 11:21:40 AM 39.6462 -75.2534 68° East 483 556 23,000  Level FlightAware ADS-B
Mon 11:22:10 AM 39.6647 -75.1682 74° East 494 568 23,000  Level FlightAware ADS-B
Mon 11:22:41 AM 39.6831 -75.0818 75° East 491 565 23,000  Level FlightAware ADS-B
Mon 11:23:15 AM 39.7035 -74.9833 75° East 488 562 23,000  Level FlightAware ADS-B
Mon 11:23:46 AM 39.7216 -74.8968 75° East 488 562 23,000  Level FlightAware ADS-B
Mon 11:24:16 AM 39.7391 -74.8120 75° East 488 562 23,000  Level FlightAware ADS-B
Mon 11:24:49 AM 39.7582 -74.7199 75° East 488 562 23,000  Level FlightAware ADS-B
Mon 11:25:20 AM 39.7766 -74.6310 75° East 489 563 23,000  Level FlightAware ADS-B
Mon 11:25:54 AM 39.7965 -74.5341 75° East 489 563 23,000  Level FlightAware ADS-B
Mon 11:26:10 AM 39.8060 -74.4883 75° East 489 563 23,000  Level FlightAware ADS-B
Mon 11:26:23 AM 39.8156 -74.4546 70° East 489 563 23,000  Level FlightAware ADS-B
Mon 11:26:37 AM 39.8302 -74.4160 64° Northeast 490 564 23,000  Level FlightAware ADS-B
Mon 11:26:46 AM 39.8399 -74.3950 59° Northeast 489 563 23,000  Level FlightAware ADS-B
Mon 11:27:17 AM 39.8816 -74.3198 54° Northeast 492 566 23,000  Level FlightAware ADS-B
Mon 11:27:48 AM 39.9232 -74.2460 54° Northeast 493 567 23,000  Level FlightAware ADS-B
Mon 11:28:19 AM 39.9656 -74.1715 53° Northeast 492 566 23,000  Level FlightAware ADS-B
Mon 11:28:55 AM 40.0137 -74.0864 54° Northeast 490 564 23,000  Level FlightAware ADS-B
Mon 11:29:26 AM 40.0557 -74.0114 54° Northeast 491 565 23,000  Level FlightAware ADS-B
Mon 11:29:59 AM 40.1001 -73.9326 54° Northeast 491 565 23,000 -882 Level FlightAware ADS-B
Mon 11:30:34 AM 40.1460 -73.8510 54° Northeast 480 552 22,000 -1,881 Descending FlightAware ADS-B
Mon 11:31:06 AM 40.1872 -73.7774 54° Northeast 469 540 20,900 -1,905 Descending FlightAware ADS-B
Mon 11:31:37 AM 40.2270 -73.7062 54° Northeast 459 528 20,000 -1,754 Descending FlightAware ADS-B
Mon 11:32:11 AM 40.2688 -73.6316 54° Northeast 454 522 19,000 -1,754 Descending FlightAware ADS-B
Mon 11:32:42 AM 40.3062 -73.5641 54° Northeast 443 510 18,100 -1,810 Descending FlightAware ADS-B
Mon 11:33:14 AM 40.3464 -73.4964 52° Northeast 440 506 17,100 -1,800 Descending FlightAware ADS-B
Mon 11:33:22 AM 40.3583 -73.4826 41° Northeast 431 496 16,900 -571 Descending FlightAware ADS-B
Mon 11:33:35 AM 40.3802 -73.4625 35° Northeast 426 490 16,900  Level FlightAware ADS-B
Mon 11:33:40 AM 40.3888 -73.4561 30° Northeast 425 489 16,900  Level FlightAware ADS-B
Mon 11:33:53 AM 40.4117 -73.4425 24° Northeast 424 488 16,900  Level FlightAware ADS-B
Mon 11:33:58 AM 40.4207 -73.4384 19° North 422 486 16,900  Level FlightAware ADS-B
Mon 11:34:30 AM 40.4799 -73.4164 16° North 421 484 16,900  Level FlightAware ADS-B
Mon 11:35:00 AM 40.5367 -73.3958 15° North 422 486 16,900 -98 Level FlightAware ADS-B
Mon 11:35:31 AM 40.5958 -73.3744 15° North 423 487 16,800 -590 Descending FlightAware ADS-B
Mon 11:36:01 AM 40.6513 -73.3545 15° North 401 461 16,300 -968 Descending FlightAware ADS-B
Mon 11:36:33 AM 40.7049 -73.3351 15° North 367 422 15,800 -952 Descending FlightAware ADS-B
Mon 11:37:04 AM 40.7548 -73.3171 15° North 349 402 15,300 -980 Descending FlightAware ADS-B
Mon 11:37:22 AM 40.7830 -73.3031 21° North 384 442 15,000 -933 Descending FlightAware ADS-B
Mon 11:37:49 AM 40.8165 -73.2545 48° Northeast 412 474 14,600 -1,474 Descending FlightAware ADS-B
Mon 11:38:19 AM 40.8460 -73.1940 57° Northeast 405 466 13,600 -1,971 Descending FlightAware ADS-B
Mon 11:38:59 AM 40.8850 -73.1150 57° Northeast 395 455 12,300 -1,835 Descending FlightAware ADS-B
Mon 11:39:44 AM 40.9270 -73.0290 57° Northeast 386 444 11,000 -1,482 Descending FlightAware ADS-B
Mon 11:40:24 AM 40.9660 -72.9480 57° Northeast 340 391 10,200 -1,108 Descending FlightAware ADS-B
Mon 11:40:49 AM 40.9860 -72.9070 57° Northeast 310 357 9,800 -1,300 Descending FlightAware ADS-B
Mon 11:41:24 AM 41.0190 -72.8630 45° Northeast 288 331 8,900 -1,467 Descending FlightAware ADS-B
Mon 11:41:34 AM 41.0290 -72.8600 13° North 283 326 8,700 -600 Descending FlightAware ADS-B
Mon 11:42:04 AM 41.0620 -72.8560 North 282 325 8,500 -211 Descending FlightAware ADS-B
Mon 11:42:31 AM 41.0910 -72.8530 North 282 325 8,500  Level FlightAware ADS-B
Mon 11:42:43 AM 41.1050 -72.8510 North 282 325 8,500  Level FlightAware ADS-B
Mon 11:43:08 AM 41.1320 -72.8480 North 282 325 8,500  Level FlightAware ADS-B
Mon 11:43:33 AM 41.1600 -72.8450 North 282 325 8,500 -2,432 Level FlightAware ADS-B
Mon 11:44:59 AM 41.1333 -73.1333 North 249 287 4,000 -1,849 Descending New York TRACON
Mon 11:45:59 AM 41.1333 -73.2167 270° West 230 265 4,000  Level New York TRACON
Mon 11:46:59 AM 41.1500 -73.2833 288° West 231 266 4,000  Level New York TRACON
Mon 11:47:59 AM 41.1667 -73.3667 285° West 218 251 4,000  Level New York TRACON
Mon 11:48:59 AM 41.2000 -73.4333 304° West 222 255 4,000  Level New York TRACON
Mon 11:49:59 AM 41.2000 -73.5000 270° West 235 270 4,000 -345 Level New York TRACON
Mon 11:55:04 AM 40.9830 -73.6310 270° West 157 181 1,900 -373 Descending FlightAware ADS-B
Mon 11:55:37 AM 40.9980 -73.6480 319° Northwest 155 178 1,900 -626 Level FlightAware ADS-B
Mon 11:56:59 AM 41.0500 -73.6833 319° Northwest 123 142 700 -878 Descending New York TRACON
Mon 11:58:00 AM 41.0667 -73.7000 236° Southwest  Level FlightAware Approximate
Mon 12:05:00 PM 41.0669 -73.7076 236° Southwest  Level Estimated
Mon 12:06:00 PM 41.0667 -73.7000 236° Southwest  Level FlightAware Approximate

Login

Don't have an account? Register now (free) for customized features, flight alerts, and more!